Weather History for Burnet, TX

Change the Weather History Date:

Saturday, February 8, 2014

  Actual Average Record
Temperature  
Mean Temperature 51 °F -  
Max Temperature 69 °F 58 °F 81 °F (1999)
Min Temperature 33 °F 39 °F 30 °F (2003)
Degree Days  
Heating Degree Days 14    
Growing Degree Days 1 (Base 50)    
Moisture  
Dew Point 34 °F    
Average Humidity 74    
Maximum Humidity 96    
Minimum Humidity 28    
Precipitation  
Precipitation 0.00 in - - ()
Sea Level Pressure  
Sea Level Pressure 30.14 in    
Wind  
Wind Speed 5 mph (SSW)    
Max Wind Speed 9 mph    
Max Gust Speed -    
Visibility 6 miles    
Events      
Averages and records for this station are not official NWS values.
T = Trace of Precipitation, MM = Missing Value Source: NWS Daily Summary

Daily Weather History Graph

Daily Weather History Graph

Search for Another Location

Airport:

Trip Planner

Search our weather history database for the weather conditions in past years. The results will help you decide how hot, cold, wet, or windy it might be!

Date:

Astronomy

Feb. 08, 2014 Rise Set
Actual Time 7:19 AM CST 6:15 PM CST
Civil Twilight 6:54 AM CST 6:40 PM CST
Nautical Twilight 6:26 AM CST 7:08 PM CST
Astronomical Twilight 5:57 AM CST 7:36 PM CST
Moon 1:16 PM CST (2/8) 2:27 AM CST (2/8)
Length of Visible Light 11h 45m
Length of Day
10h 55m
Waxing Gibbous, 69% of the Moon is Illuminated
Feb 8
Waxing Gibbous
Feb 14
Full
Feb 22
Last Quarter
Mar 1
New
Mar 8
First Quarter

Hourly Weather History & Observations

Time (CST) Temp. Windchill Dew Point Humidity Pressure Visibility Wind Dir Wind Speed Gust Speed Precip Events Conditions
12:53 AM 33.1 °F 30.0 °F 28.0 °F 82% 30.22 in 5.0 mi South 3.5 mph - N/A   Haze
1:49 AM 33.8 °F 29.6 °F 28.4 °F 81% 30.19 in 4.0 mi SSE 4.6 mph - N/A   Overcast
1:53 AM 33.1 °F - 28.9 °F 85% 30.21 in 4.0 mi Calm Calm - N/A   Overcast
2:53 AM 33.1 °F 30.0 °F 30.9 °F 92% 30.19 in 3.0 mi SSW 3.5 mph - N/A   Overcast
3:10 AM 33.1 °F 27.7 °F 30.9 °F 92% 30.17 in 2.5 mi SSW 5.8 mph - N/A   Overcast
3:53 AM 33.1 °F 28.7 °F 32.0 °F 96% 30.19 in 2.0 mi SSW 4.6 mph - N/A   Overcast
4:12 AM 33.1 °F 30.0 °F 32.0 °F 96% 30.16 in 1.8 mi South 3.5 mph - N/A   Overcast
4:21 AM 33.1 °F 26.9 °F 32.0 °F 96% 30.16 in 2.0 mi SSW 6.9 mph - N/A   Overcast
4:53 AM 33.1 °F 28.7 °F 32.0 °F 96% 30.19 in 2.0 mi SSW 4.6 mph - N/A   Overcast
5:53 AM 34.0 °F 28.8 °F 32.0 °F 92% 30.18 in 2.0 mi SSW 5.8 mph - N/A   Overcast
6:19 AM 34.0 °F 28.8 °F 33.1 °F 96% 30.16 in 1.2 mi SW 5.8 mph - N/A   Overcast
6:32 AM 34.0 °F 28.8 °F 33.1 °F 96% 30.16 in 1.8 mi SW 5.8 mph - N/A   Overcast
6:39 AM 34.0 °F 29.8 °F 33.1 °F 96% 30.17 in 2.0 mi SSW 4.6 mph - N/A   Overcast
6:53 AM 34.0 °F 28.0 °F 33.1 °F 96% 30.20 in 2.5 mi WSW 6.9 mph - N/A   Overcast
7:16 AM 34.0 °F 28.8 °F 33.1 °F 96% 30.18 in 1.2 mi SW 5.8 mph - N/A   Overcast
7:53 AM 34.0 °F 27.2 °F 33.1 °F 96% 30.20 in 1.5 mi SW 8.1 mph - N/A   Overcast
8:15 AM 35.1 °F 27.9 °F 34.0 °F 96% 30.19 in 2.5 mi SW 9.2 mph - N/A   Overcast
8:24 AM 35.1 °F 29.3 °F 34.0 °F 96% 30.19 in 4.0 mi SSW 6.9 mph - N/A   Overcast
8:53 AM 36.0 °F 29.6 °F 34.0 °F 93% 30.22 in 5.0 mi SSW 8.1 mph - N/A   Overcast
9:36 AM 39.0 °F 36.8 °F 35.1 °F 86% 30.21 in 9.0 mi Variable 3.5 mph - N/A   Scattered Clouds
9:53 AM 42.1 °F 39.2 °F 35.1 °F 76% 30.22 in 10.0 mi Variable 4.6 mph - N/A   Clear
10:53 AM 48.0 °F - 36.0 °F 63% 30.18 in 10.0 mi SSW 6.9 mph - N/A   Clear
11:53 AM 53.1 °F - 35.1 °F 50% 30.16 in 10.0 mi South 9.2 mph - N/A   Clear
12:53 PM 57.9 °F - 36.0 °F 44% 30.11 in 10.0 mi South 6.9 mph - N/A   Clear
1:53 PM 63.0 °F - 37.0 °F 38% 30.07 in 10.0 mi South 6.9 mph - N/A   Clear
2:53 PM 66.9 °F - 37.9 °F 34% 30.04 in 10.0 mi South 6.9 mph - N/A   Clear
3:53 PM 68.0 °F - 39.0 °F 35% 30.01 in 10.0 mi SSE 9.2 mph - N/A   Clear
4:53 PM 69.1 °F - 37.9 °F 32% 29.99 in 10.0 mi South 9.2 mph - N/A   Clear
5:53 PM 66.9 °F - 33.1 °F 28% 29.99 in 10.0 mi South 6.9 mph - N/A   Clear
6:53 PM 62.1 °F - 33.1 °F 34% 30.01 in 10.0 mi South 6.9 mph - N/A   Clear
7:53 PM 57.0 °F - 34.0 °F 42% 30.04 in 10.0 mi South 3.5 mph - N/A   Clear
8:53 PM 53.1 °F - 37.0 °F 55% 30.06 in 10.0 mi SE 3.5 mph - N/A   Clear
9:53 PM 51.1 °F - 39.0 °F 63% 30.07 in 10.0 mi South 6.9 mph - N/A   Clear
10:53 PM 48.0 °F - 39.0 °F 71% 30.09 in 10.0 mi Calm Calm - N/A   Clear
11:53 PM 44.1 °F - 37.9 °F 79% 30.10 in 10.0 mi Calm Calm - N/A   Clear